GW0353 Weather Reports


Display with metric or nautical units.
time (UTC)temp
F
wind
direction
speed
MPH
gust
MPH
rain 1hr
in
rain 24hr
in
rain mn
in
humidity
%
barometer
mb
20260906205558 75 141 4.0 16.0 0.00 0.00 0.00 14 1020.2
20260906205057 76 112 0.0 5.0 0.00 0.00 0.00 15 1020.3
20260906204612 76 221 1.0 9.0 0.00 0.00 0.00 15 1020.2
20260906204057 75 68 2.0 9.0 0.00 0.00 0.00 15 1020.2
20260906203558 75 18 3.0 9.0 0.00 0.00 0.00 13 1020.2
20260906203106 75 288 3.0 7.0 0.00 0.00 0.00 13 1020.3
20260906202601 74 329 3.0 14.0 0.00 0.00 0.00 14 1020.1
20260906202058 73 62 4.0 14.0 0.00 0.00 0.00 14 1020.2
20260906201613 73 55 7.0 31.0 0.00 0.00 0.00 15 1020.4
20260906201058 73 312 8.0 31.0 0.00 0.00 0.00 14 1020.5
20260906200557 73 60 9.0 15.0 0.00 0.00 0.00 16 1020.4
20260906200106 74 49 4.0 13.0 0.00 0.00 0.00 16 1020.3
20260906195557 73 336 4.0 13.0 0.00 0.00 0.00 15 1020.5
20260906195059 73 56 5.0 14.0 0.00 0.00 0.00 13 1020.4
20260906194607 73 68 6.0 14.0 0.00 0.00 0.00 13 1020.5
20260906194058 73 120 3.0 13.0 0.00 0.00 0.00 14 1020.5
20260906193558 75 28 4.0 10.0 0.00 0.00 0.00 14 1020.6
20260906193108 75 36 1.0 9.0 0.00 0.00 0.00 15 1020.7
20260906192556 74 296 2.0 9.0 0.00 0.00 0.00 14 1020.9
20260906192057 73 308 3.0 11.0 0.00 0.00 0.00 14 1020.8
20260906191605 72 0 2.0 12.0 0.00 0.00 0.00 14 1020.8
20260906191057 72 94 5.0 14.0 0.00 0.00 0.00 15 1020.8
20260906190602 72 315 3.0 17.0 0.00 0.00 0.00 14 1020.7
20260906190114 72 60 4.0 17.0 0.00 0.00 0.00 16 1020.8
20260906185601 72 104 7.0 17.0 0.00 0.00 0.00 12 1020.9
20260906185058 73 92 4.0 11.0 0.00 0.00 0.00 12 1020.6
20260906184611 73 37 5.0 11.0 0.00 0.00 0.00 14 1020.6
20260906184057 74 312 4.0 9.0 0.00 0.00 0.00 15 1020.5
20260906183558 73 308 2.0 12.0 0.00 0.00 0.00 13 1020.5
20260906183116 72 44 4.0 22.0 0.00 0.00 0.00 15 1020.5
20260906182558 71 340 7.0 22.0 0.00 0.00 0.00 17 1020.5
20260906182057 72 250 3.0 15.0 0.00 0.00 0.00 17 1020.5
20260906181610 71 39 5.0 17.0 0.00 0.00 0.00 19 1020.4
20260906181058 70 40 9.0 19.0 0.00 0.00 0.00 19 1020.3
20260906180557 68 346 7.0 19.0 0.00 0.00 0.00 18 1020.3
20260906180124 68 68 8.0 19.0 0.00 0.00 0.00 19 1020.4
20260906175558 68 28 11.0 19.0 0.00 0.00 0.00 20 1020.4
20260906175057 69 48 6.0 15.0 0.00 0.00 0.00 19 1020.4
20260906174607 68 50 6.0 15.0 0.00 0.00 0.00 19 1020.6
20260906174058 68 45 8.0 25.0 0.00 0.00 0.00 18 1020.8
20260906173601 69 137 10.0 25.0 0.00 0.00 0.00 16 1020.8
20260906173119 68 59 12.0 25.0 0.00 0.00 0.00 18 1020.6
20260906172558 67 11 9.0 16.0 0.00 0.00 0.00 20 1020.8
20260906172100 69 72 5.0 16.0 0.00 0.00 0.00 19 1020.9
20260906171603 69 44 6.0 15.0 0.00 0.00 0.00 17 1021.1
20260906171057 70 30 6.0 11.0 0.00 0.00 0.00 19 1020.9
20260906170559 71 4 2.0 11.0 0.00 0.00 0.00 18 1021.1
20260906170127 70 352 2.0 11.0 0.00 0.00 0.00 17 1021.1
20260906165558 69 302 4.0 11.0 0.00 0.00 0.00 16 1020.9
20260906165058 69 51 2.0 16.0 0.00 0.00 0.00 19 1020.8
20260906164606 68 297 0.0 16.0 0.00 0.00 0.00 22 1020.9
20260906164058 67 84 8.0 16.0 0.00 0.00 0.00 21 1021.1
20260906163557 66 335 3.0 10.0 0.00 0.00 0.00 24 1021.2
20260906163114 65 52 4.0 13.0 0.00 0.00 0.00 24 1021.0
20260906162557 64 77 7.0 13.0 0.00 0.00 0.00 25 1021.1
20260906162057 64 104 6.0 12.0 0.00 0.00 0.00 25 1021.2
20260906161615 64 55 3.0 10.0 0.00 0.00 0.00 25 1021.4
20260906161057 64 131 4.0 9.0 0.00 0.00 0.00 26 1021.3
20260906160557 63 167 4.0 9.0 0.00 0.00 0.00 25 1021.4
20260906155559 61 53 1.0 4.0 0.00 0.00 0.00 28 1021.5
20260906155057 62 63 1.0 3.0 0.00 0.00 0.00 30 1021.7
20260906154606 62 0 0.0 3.0 0.00 0.00 0.00 30 1022.1
20260906154058 60 0 2.0 3.0 0.00 0.00 0.00 30 1022.0
20260906153558 60 63 0.0 2.0 0.00 0.00 0.00 28 1022.1
20260906153104 58 240 0.0 5.0 0.00 0.00 0.00 31 1022.0
20260906152557 57 0 1.0 5.0 0.00 0.00 0.00 34 1022.1
20260906152057 57 64 0.0 2.0 0.00 0.00 0.00 37 1022.1
20260906151614 56 0 0.0 3.0 0.00 0.00 0.00 37 1022.2
20260906151057 54 148 0.0 3.0 0.00 0.00 0.00 43 1022.0
20260906150557 54 56 0.0 2.0 0.00 0.00 0.00 42 1022.2
20260906150111 52 0 1.0 2.0 0.00 0.00 0.00 42 1022.0
20260906145557 52 0 0.0 1.0 0.00 0.00 0.00 42 1022.2
20260906145100 52 0 0.0 6.0 0.00 0.00 0.00 38 1022.1
20260906144605 51 0 0.0 6.0 0.00 0.00 0.00 39 1022.1
20260906144058 50 162 1.0 4.0 0.00 0.00 0.00 36 1022.0
20260906143557 46 82 0.0 3.0 0.00 0.00 0.00 43 1021.8
20260906143130 44 0 0.0 2.0 0.00 0.00 0.00 46 1021.9
20260906142600 43 18 0.0 1.0 0.00 0.00 0.00 44 1021.8
20260906142057 42 0 0.0 1.0 0.00 0.00 0.00 46 1021.8
20260906141608 42 0 0.0 1.0 0.00 0.00 0.00 46 1021.9
20260906141058 41 0 0.0 3.0 0.00 0.00 0.00 45 1021.7
20260906140558 43 148 0.0 3.0 0.00 0.00 0.00 46 1021.8
20260906140109 42 184 1.0 3.0 0.00 0.00 0.00 45 1021.8
20260906135557 41 200 0.0 3.0 0.00 0.00 0.00 47 1021.9
20260906135101 41 171 1.0 3.0 0.00 0.00 0.00 46 1021.6
20260906134613 41 0 0.0 2.0 0.00 0.00 0.00 45 1021.7
20260906134057 43 233 0.0 2.0 0.00 0.00 0.00 42 1021.6
20260906133557 43 235 0.0 4.0 0.00 0.00 0.00 43 1021.6
20260906133109 42 0 0.0 5.0 0.00 0.00 0.00 44 1021.6
20260906132558 42 0 2.0 5.0 0.00 0.00 0.00 43 1021.6
20260906132059 42 0 0.0 3.0 0.00 0.00 0.00 44 1021.4
20260906131601 42 0 0.0 3.0 0.00 0.00 0.00 44 1021.4
20260906131100 42 0 0.0 3.0 0.00 0.00 0.00 45 1021.4
20260906130557 42 158 0.0 3.0 0.00 0.00 0.00 47 1021.5
20260906130116 42 212 0.0 6.0 0.00 0.00 0.00 48 1021.2
20260906125557 41 0 0.0 6.0 0.00 0.00 0.00 49 1021.5
20260906125058 41 229 0.0 3.0 0.00 0.00 0.00 50 1021.5
20260906124606 42 6 0.0 3.0 0.00 0.00 0.00 48 1021.2
20260906124056 42 231 0.0 1.0 0.00 0.00 0.00 49 1021.4
20260906123558 42 256 0.0 2.0 0.00 0.00 0.00 48 1021.3
20260906123140 43 0 0.0 3.0 0.00 0.00 0.00 47 1021.4
20260906122559 42 156 1.0 6.0 0.00 0.00 0.00 49 1021.3
20260906122058 42 0 1.0 6.0 0.00 0.00 0.00 50 1021.4
20260906121605 41 145 0.0 3.0 0.00 0.00 0.00 49 1021.5
20260906121058 42 0 1.0 3.0 0.00 0.00 0.00 49 1021.5
20260906120558 42 0 0.0 2.0 0.00 0.00 0.00 48 1021.4
20260906120112 42 0 0.0 4.0 0.00 0.00 0.00 49 1021.6
20260906115557 42 0 0.0 4.0 0.00 0.00 0.00 49 1021.4
20260906115057 43 207 0.0 4.0 0.00 0.00 0.00 49 1021.5
20260906114611 43 248 1.0 3.0 0.00 0.00 0.00 48 1021.5
20260906114057 43 0 0.0 6.0 0.00 0.00 0.00 48 1021.5
20260906113556 43 0 0.0 6.0 0.00 0.00 0.00 47 1021.5
20260906113108 43 243 0.0 4.0 0.00 0.00 0.00 50 1021.5
20260906112558 43 115 1.0 4.0 0.00 0.00 0.00 49 1021.4
20260906112056 45 0 0.0 2.0 0.00 0.00 0.00 47 1021.6
20260906111606 45 0 0.0 2.0 0.00 0.00 0.00 46 1021.5
20260906111058 45 222 0.0 3.0 0.00 0.00 0.00 47 1021.5
20260906110559 45 0 0.0 4.0 0.00 0.00 0.00 48 1021.5
20260906110106 45 0 2.0 4.0 0.00 0.00 0.00 48 1021.6
20260906105558 46 0 0.0 5.0 0.00 0.00 0.00 47 1021.5
20260906105058 46 0 0.0 5.0 0.00 0.00 0.00 47 1021.5
20260906104609 47 217 2.0 5.0 0.00 0.00 0.00 47 1021.7
20260906104056 47 0 0.0 3.0 0.00 0.00 0.00 46 1021.6
20260906103557 48 235 1.0 3.0 0.00 0.00 0.00 46 1021.7
20260906103106 48 92 2.0 3.0 0.00 0.00 0.00 45 1021.5
20260906102558 48 0 0.0 3.0 0.00 0.00 0.00 45 1021.5
20260906102058 49 219 0.0 3.0 0.00 0.00 0.00 44 1021.6
20260906101605 48 84 1.0 6.0 0.00 0.00 0.00 45 1021.6
20260906101057 48 181 0.0 6.0 0.00 0.00 0.00 46 1021.8
20260906100557 47 72 2.0 6.0 0.00 0.00 0.00 47 1021.6
20260906100110 48 0 1.0 7.0 0.00 0.00 0.00 47 1021.7
20260906095557 47 162 0.0 7.0 0.00 0.00 0.00 48 1022.0
20260906095058 46 75 4.0 7.0 0.00 0.00 0.00 50 1021.9
20260906094609 45 0 1.0 4.0 0.00 0.00 0.00 50 1021.8
20260906094058 45 68 2.0 4.0 0.00 0.00 0.00 50 1021.8
20260906093558 46 0 2.0 7.0 0.00 0.00 0.00 51 1021.8
20260906093108 48 0 4.0 7.0 0.00 0.00 0.00 47 1021.9
20260906092558 46 141 1.0 2.0 0.00 0.00 0.00 50 1021.9
20260906092058 47 0 0.0 2.0 0.00 0.00 0.00 49 1022.0
20260906091607 48 0 0.0 2.0 0.00 0.00 0.00 48 1021.8
20260906091100 48 224 0.0 1.0 0.00 0.00 0.00 48 1022.0
20260906090559 50 0 0.0 3.0 0.00 0.00 0.00 46 1022.1
20260906090104 51 0 1.0 8.0 0.00 0.00 0.00 46 1022.0
20260906085557 51 52 4.0 8.0 0.00 0.00 0.00 46 1022.2
20260906085057 49 99 5.0 8.0 0.00 0.00 0.00 49 1022.0
20260906084606 47 54 1.0 3.0 0.00 0.00 0.00 52 1022.0
20260906084057 47 0 0.0 7.0 0.00 0.00 0.00 52 1022.2
20260906083558 49 0 0.0 9.0 0.00 0.00 0.00 51 1022.1
20260906083106 47 79 5.0 9.0 0.00 0.00 0.00 52 1022.1
20260906082557 46 40 0.0 5.0 0.00 0.00 0.00 54 1022.0
20260906082058 47 169 1.0 5.0 0.00 0.00 0.00 53 1022.1
20260906081604 47 62 0.0 3.0 0.00 0.00 0.00 53 1022.0
20260906081058 48 0 1.0 3.0 0.00 0.00 0.00 51 1022.0
20260906080558 49 0 2.0 3.0 0.00 0.00 0.00 51 1021.9
20260906080103 49 140 0.0 4.0 0.00 0.00 0.00 51 1022.0
20260906075618 50 0 0.0 8.0 0.00 0.00 0.00 50 1022.0
20260906075058 50 77 4.0 8.0 0.00 0.00 0.00 50 1022.0
20260906074614 49 53 1.0 9.0 0.00 0.00 0.00 52 1021.7
20260906074055 50 0 2.0 9.0 0.00 0.00 0.00 52 1022.0
20260906073600 48 65 5.0 7.0 0.00 0.00 0.00 57 1021.9
20260906073105 45 0 0.0 1.0 0.00 0.00 0.00 58 1021.9
20260906072558 46 0 0.0 1.0 0.00 0.00 0.00 58 1022.0
20260906072058 46 0 0.0 1.0 0.00 0.00 0.00 58 1022.0
20260906071605 45 30 0.0 1.0 0.00 0.00 0.00 61 1021.9
20260906071057 45 0 0.0 1.0 0.00 0.00 0.00 60 1022.0
20260906070558 45 0 0.0 1.0 0.00 0.00 0.00 61 1021.9
20260906070111 46 0 0.0 1.0 0.00 0.00 0.00 60 1021.9
20260906065558 47 0 0.0 1.0 0.00 0.00 0.00 60 1021.8
20260906065058 47 17 0.0 2.0 0.00 0.00 0.00 59 1022.0
20260906064606 47 0 0.0 2.0 0.00 0.00 0.00 59 1021.8
20260906064058 48 354 0.0 2.0 0.00 0.00 0.00 58 1021.7
20260906063556 48 200 0.0 1.0 0.00 0.00 0.00 58 1021.9
20260906063106 48 0 0.0 1.0 0.00 0.00 0.00 58 1021.8
20260906062555 49 0 0.0 2.0 0.00 0.00 0.00 58 1021.9
20260906062055 49 0 0.0 2.0 0.00 0.00 0.00 57 1022.0
20260906061607 50 0 0.0 4.0 0.00 0.00 0.00 57 1022.1
20260906061057 50 0 1.0 5.0 0.00 0.00 0.00 57 1022.0
20260906060555 49 59 2.0 5.0 0.00 0.00 0.00 58 1021.9
20260906060105 49 158 2.0 4.0 0.00 0.00 0.00 59 1022.0
20260906055559 49 0 1.0 3.0 0.00 0.00 0.00 61 1022.0
20260906055057 49 136 0.0 3.0 0.00 0.00 0.00 61 1022.2
20260906054608 49 154 0.0 4.0 0.00 0.00 0.00 60 1022.2
20260906054056 49 0 1.0 5.0 0.00 0.00 0.00 60 1022.1
20260906053556 49 79 3.0 5.0 0.00 0.00 0.00 62 1022.1
20260906053110 48 101 2.0 4.0 0.00 0.00 0.00 62 1022.1
20260906052555 49 0 1.0 5.0 0.00 0.00 0.00 61 1022.2
20260906052059 48 105 0.0 5.0 0.00 0.00 0.00 61 1022.1
20260906051605 49 205 0.0 3.0 0.00 0.00 0.00 61 1022.4
20260906051058 49 0 0.0 3.0 0.00 0.00 0.00 60 1022.1
20260906050600 49 0 0.0 1.0 0.00 0.00 0.00 61 1022.2
20260906050108 49 0 0.0 2.0 0.00 0.00 0.00 61 1022.2
20260906045557 49 128 0.0 2.0 0.00 0.00 0.00 59 1022.2
20260906045103 50 0 0.0 1.0 0.00 0.00 0.00 59 1022.3
20260906044607 51 0 0.0 1.0 0.00 0.00 0.00 58 1022.4
20260906044054 51 0 0.0 1.0 0.00 0.00 0.00 58 1022.2
20260906043556 51 226 0.0 0.0 0.00 0.00 0.00 57 1022.1
20260906043107 52 0 0.0 0.0 0.00 0.00 0.00 57 1022.2
20260906042555 52 0 0.0 0.0 0.00 0.00 0.00 57 1022.1
20260906042055 52 166 0.0 2.0 0.00 0.00 0.00 57 1022.0
20260906041606 53 195 0.0 2.0 0.00 0.00 0.00 54 1022.1
20260906041057 54 0 0.0 1.0 0.00 0.00 0.00 55 1022.0
20260906040600 54 0 0.0 1.0 0.00 0.00 0.00 55 1022.0
20260906040112 55 172 0.0 1.0 0.00 0.00 0.00 54 1021.9
20260906035557 55 0 0.0 3.0 0.00 0.00 0.00 53 1021.8
20260906035101 56 0 1.0 3.0 0.00 0.00 0.00 52 1021.7
20260906034608 56 0 0.0 1.0 0.00 0.00 0.00 50 1021.6
20260906034057 57 0 0.0 5.0 0.00 0.00 0.00 48 1021.7
20260906033557 58 0 0.0 5.0 0.00 0.00 0.00 47 1021.6
20260906033116 58 0 1.0 5.0 0.00 0.00 0.00 46 1021.5
20260906032558 59 347 2.0 7.0 0.00 0.00 0.00 45 1021.5
20260906032057 60 32 2.0 7.0 0.00 0.00 0.00 43 1021.5
20260906031607 63 22 0.0 15.0 0.00 0.00 0.00 37 1021.2
20260906031100 65 340 4.0 15.0 0.00 0.00 0.00 20 1021.0
20260906030558 65 119 9.0 16.0 0.00 0.00 0.00 18 1021.0
20260906030109 65 141 6.0 19.0 0.00 0.00 0.00 19 1020.9
20260906025558 65 86 11.0 20.0 0.00 0.00 0.00 20 1021.1
20260906025058 65 133 11.0 20.0 0.00 0.00 0.00 21 1020.8
20260906024608 65 160 11.0 20.0 0.00 0.00 0.00 22 1021.1
20260906024100 65 155 9.0 15.0 0.00 0.00 0.00 22 1021.0
20260906023558 65 117 9.0 16.0 0.00 0.00 0.00 22 1021.0
20260906023104 65 149 8.0 18.0 0.00 0.00 0.00 23 1020.8
20260906022559 65 145 9.0 21.0 0.00 0.00 0.00 23 1020.9
20260906022102 65 111 10.0 21.0 0.00 0.00 0.00 22 1020.9
20260906021606 65 117 7.0 15.0 0.00 0.00 0.00 23 1020.9
20260906021057 65 180 8.0 15.0 0.00 0.00 0.00 24 1021.0
20260906020557 65 158 7.0 12.0 0.00 0.00 0.00 24 1021.0
20260906020113 65 139 4.0 13.0 0.00 0.00 0.00 23 1020.9
20260906015557 65 148 4.0 15.0 0.00 0.00 0.00 25 1020.9
20260906015058 66 102 7.0 15.0 0.00 0.00 0.00 23 1020.9
20260906014606 66 157 4.0 13.0 0.00 0.00 0.00 23 1020.9
20260906014057 66 141 6.0 13.0 0.00 0.00 0.00 23 1020.6
20260906013601 67 212 6.0 10.0 0.00 0.00 0.00 23 1020.6
20260906013111 67 128 5.0 10.0 0.00 0.00 0.00 23 1020.5
20260906012559 68 153 3.0 8.0 0.00 0.00 0.00 22 1020.5
20260906012057 68 0 2.0 8.0 0.00 0.00 0.00 22 1020.4
20260906011610 68 0 0.0 8.0 0.00 0.00 0.00 22 1020.6
20260906011058 69 94 2.0 13.0 0.00 0.00 0.00 22 1020.5
20260906010555 69 0 3.0 13.0 0.00 0.00 0.00 21 1020.6
20260906010107 70 104 7.0 11.0 0.00 0.00 0.00 20 1020.6
20260906005555 70 75 0.0 7.0 0.00 0.00 0.00 21 1020.5
20260906005057 70 255 1.0 7.0 0.00 0.00 0.00 21 1020.6
20260906004610 70 242 3.0 15.0 0.00 0.00 0.00 22 1020.6
20260906004058 70 222 2.0 16.0 0.00 0.00 0.00 22 1020.5
20260906003558 70 116 9.0 16.0 0.00 0.00 0.00 20 1020.5
20260906003106 70 47 9.0 16.0 0.00 0.00 0.00 21 1020.4
20260906002557 71 105 6.0 13.0 0.00 0.00 0.00 22 1020.4
20260906002055 71 127 3.0 13.0 0.00 0.00 0.00 21 1020.4
20260906001609 71 123 7.0 13.0 0.00 0.00 0.00 19 1020.3
20260906001057 71 106 2.0 10.0 0.00 0.00 0.00 20 1020.3
20260906000557 71 4 5.0 21.0 0.00 0.00 0.00 19 1020.2
20260906000107 71 183 9.0 21.0 0.00 0.00 0.00 22 1020.4
20260905235557 71 132 8.0 16.0 0.00 0.00 0.00 19 1020.1
20260905235057 71 162 0.0 15.0 0.00 0.00 0.00 22 1020.3
20260905234604 71 333 6.0 21.0 0.00 0.00 0.00 20 1020.2
20260905234056 71 169 4.0 21.0 0.00 0.00 0.00 21 1020.1
20260905233556 72 131 13.0 21.0 0.00 0.00 0.00 20 1020.0
20260905233104 73 147 5.0 14.0 0.00 0.00 0.00 20 1019.9
20260905232555 72 110 4.0 11.0 0.00 0.00 0.00 20 1019.9
20260905232056 73 155 1.0 10.0 0.00 0.00 0.00 23 1019.9
20260905231609 72 77 4.0 10.0 0.00 0.00 0.00 21 1019.9
20260905231057 72 49 2.0 7.0 0.00 0.00 0.00 21 1019.9
20260905230557 73 0 3.0 5.0 0.00 0.00 0.00 20 1020.0
20260905230108 73 258 1.0 13.0 0.00 0.00 0.00 22 1020.0
20260905225556 72 0 2.0 13.0 0.00 0.00 0.00 23 1019.9
20260905225057 72 146 5.0 15.0 0.00 0.00 0.00 21 1020.1
20260905224606 72 163 4.0 15.0 0.00 0.00 0.00 23 1019.9
20260905224055 72 94 5.0 14.0 0.00 0.00 0.00 21 1019.9
20260905223555 72 112 6.0 16.0 0.00 0.00 0.00 19 1019.9
20260905223105 71 96 6.0 16.0 0.00 0.00 0.00 23 1019.8
20260905222557 71 125 7.0 17.0 0.00 0.00 0.00 24 1020.0
20260905222057 71 125 8.0 17.0 0.00 0.00 0.00 24 1020.0
20260905221604 71 115 5.0 16.0 0.00 0.00 0.00 23 1020.0
20260905221057 71 111 6.0 16.0 0.00 0.00 0.00 22 1020.1
20260905220558 71 9 2.0 18.0 0.00 0.00 0.00 22 1020.1
20260905220105 71 133 5.0 18.0 0.00 0.00 0.00 24 1019.9
20260905215557 70 13 9.0 18.0 0.00 0.00 0.00 24 1020.1
20260905215058 70 31 6.0 18.0 0.00 0.00 0.00 25 1020.1
20260905214608 70 90 3.0 19.0 0.00 0.00 0.00 24 1020.2
20260905214058 70 98 10.0 19.0 0.00 0.00 0.00 22 1020.4
20260905213557 70 166 6.0 15.0 0.00 0.00 0.00 24 1020.2
20260905213108 71 93 5.0 21.0 0.00 0.00 0.00 24 1020.4
20260905212557 70 180 8.0 21.0 0.00 0.00 0.00 24 1020.4
20260905212057 70 60 6.0 22.0 0.00 0.00 0.00 24 1020.5
20260905211602 70 0 5.0 22.0 0.00 0.00 0.00 25 1020.5
20260905211057 69 80 9.0 22.0 0.00 0.00 0.00 26 1020.5
20260905210557 70 142 4.0 16.0 0.00 0.00 0.00 24 1020.7
20260905210126 69 56 7.0 21.0 0.00 0.00 0.00 26 1020.9